Starlink 30382

operational
NORAD ID: 57786 Int'l Des: 2023-134 Owner: SPXS Country: US Constellation: starlink
LEOCIRCULAR

Starlink 30382について

説明を読み込み中...

リアルタイム位置

3D地球を読み込み中...

次回通過

高度履歴

Altitude vs Time

uPlot chart will show altitude changes over time

軌道要素

1 57786U 23134R 25259.92506558 .00000147 00000-0 25936-4 0 9990
2 57786 43.0035 61.5980 0001289 259.9605 100.1092 15.02533104113333
Epoch: Sep 16, 2025 • Age: 30 hours

現在のステータス

高度 566.7 km
速度 7.58 km/s
衛星直下点 -30.64°S, 142.25°W
打ち上げ日 Sep 4, 2023
運用期間 2 years
タイプ internet

技術仕様

分類 Payload
質量 730.00 kg
乾燥質量 700.00 kg
総質量 730.00 kg
長さ 0.30 m
直径 4.10 m
スパン 29.00 m
形状 Box + pan
製造者 SPXS
バスタイプ Starlink V2M
フェーズステータス In Orbit
所有者/国 SPXS/US

大規模コンステレーション

Loading constellations...